McAllen, TX

7:54 PM CST on February 25, 2018 (GMT -0600)
McAllen Miller International

Weather History for KMFE - February, 2014

Change the Weather History Date:

Friday, February 21, 2014

  Actual Average Record
Temperature  
Mean Temperature 67 °F 66 °F  
Max Temperature 77 °F 76 °F 96 °F (1962)
Min Temperature 57 °F 55 °F 39 °F (1964)
Degree Days  
Heating Degree Days 0 3  
Month to date heating degree days 157 88  
Since 1 July heating degree days 758 515  
Cooling Degree Days 2 4  
Month to date cooling degree days 74 66  
Year to date cooling degree days 90 128  
Growing Degree Days 16 (Base 50)    
Moisture  
Dew Point 45 °F    
Average Humidity 51    
Maximum Humidity 73    
Minimum Humidity 29    
Precipitation  
Precipitation 0.00 in 0.04 in 0.87 in (1966)
Month to date precipitation 0.04 0.88  
Year to date precipitation 0.70 1.93  
Sea Level Pressure  
Sea Level Pressure 30.08 in    
Wind  
Wind Speed 10 mph (ENE)    
Max Wind Speed 20 mph    
Max Gust Speed 30 mph    
Visibility 10 miles    
Events      
T = Trace of Precipitation, MM = Missing Value Source: NWS Daily Summary

Daily Weather History Graph

Daily Weather History Graph

Search for Another Location

Airport or City:

Trip Planner

Search our weather history database for the weather conditions in past years. The results will help you decide how hot, cold, wet, or windy it might be!

Date:

Astronomy

Feb. 21, 2014 Rise Set
Actual Time 7:03 AM CST 6:29 PM CST
Civil Twilight 6:40 AM CST 6:53 PM CST
Nautical Twilight 6:13 AM CST 7:20 PM CST
Astronomical Twilight 5:46 AM CST 7:46 PM CST
Moon No Moon Rise 11:07 AM CST (2/21)
Length of Visible Light 12h 12m
Length of Day
11h 26m
Waning Gibbous, 60% of the Moon is Illuminated
Feb 21
Waning Gibbous
Feb 22
Last Quarter
Mar 1
New
Mar 8
First Quarter
Mar 16
Full

Hourly Weather History & Observations

Time (CST) Temp. Dew Point Humidity Pressure Visibility Wind Dir Wind Speed Gust Speed Precip Events Conditions
12:53 AM 72.0 °F 62.1 °F 71% 30.00 in 10.0 mi NNE 10.4 mph - N/A   Clear
1:53 AM 69.1 °F 48.9 °F 49% 30.03 in 10.0 mi NE 13.8 mph - N/A   Clear
2:53 AM 66.0 °F 39.0 °F 37% 30.04 in 10.0 mi NE 13.8 mph 21.9 mph N/A   Clear
3:53 AM 64.0 °F 41.0 °F 43% 30.06 in 10.0 mi NE 15.0 mph 25.3 mph N/A   Clear
4:53 AM 61.0 °F 42.1 °F 50% 30.10 in 10.0 mi NE 15.0 mph 20.7 mph N/A   Clear
5:53 AM 60.1 °F 37.0 °F 42% 30.13 in 10.0 mi NE 11.5 mph 20.7 mph N/A   Clear
6:53 AM 57.9 °F 39.9 °F 51% 30.14 in 10.0 mi NNE 9.2 mph - N/A   Clear
7:53 AM 57.9 °F 41.0 °F 53% 30.16 in 10.0 mi North 8.1 mph - N/A   Clear
8:53 AM 62.1 °F 44.1 °F 52% 30.18 in 10.0 mi NE 6.9 mph - N/A   Clear
9:53 AM 66.0 °F 45.0 °F 47% 30.19 in 10.0 mi ENE 10.4 mph - 0.00 in   Clear
10:53 AM 68.0 °F 46.0 °F 45% 30.19 in 10.0 mi SE 5.8 mph - N/A   Clear
11:53 AM 72.0 °F 45.0 °F 38% 30.16 in 10.0 mi East 9.2 mph - N/A   Mostly Cloudy
12:53 PM 73.9 °F 44.1 °F 34% 30.12 in 10.0 mi ENE 5.8 mph 16.1 mph 0.00 in   Clear
1:53 PM 75.0 °F 41.0 °F 29% 30.07 in 10.0 mi East 10.4 mph 18.4 mph N/A   Clear
2:53 PM 75.9 °F 42.1 °F 30% 30.05 in 10.0 mi ENE 9.2 mph 19.6 mph N/A   Clear
3:53 PM 75.0 °F 43.0 °F 32% 30.03 in 10.0 mi ENE 11.5 mph 18.4 mph N/A   Clear
4:53 PM 73.9 °F 43.0 °F 33% 30.02 in 10.0 mi East 11.5 mph - N/A   Clear
5:53 PM 71.1 °F 45.0 °F 39% 30.02 in 10.0 mi East 13.8 mph - N/A   Clear
6:53 PM 66.9 °F 45.0 °F 45% 30.04 in 10.0 mi East 10.4 mph - N/A   Clear
7:53 PM 64.0 °F 48.9 °F 58% 30.05 in 10.0 mi East 9.2 mph - N/A   Clear
8:53 PM 62.1 °F 50.0 °F 65% 30.06 in 10.0 mi East 9.2 mph - N/A   Clear
9:53 PM 61.0 °F 51.1 °F 70% 30.06 in 10.0 mi East 8.1 mph - N/A   Clear
10:53 PM 61.0 °F 52.0 °F 72% 30.04 in 10.0 mi East 8.1 mph - N/A   Clear
11:53 PM 61.0 °F 52.0 °F 72% 30.03 in 10.0 mi ENE 8.1 mph - N/A   Clear